Date,TemperatureHighF,TemperatureAvgF,TemperatureLowF,DewpointHighF,DewpointAvgF,DewpointLowF,HumidityHigh,HumidityAvg,HumidityLow,PressureMaxIn,PressureMinIn,WindSpeedMaxMPH,WindSpeedAvgMPH,GustSpeedMaxMPH,PrecipitationSumIn
2013-1-1,37,30,18,24,17,5,71,58,47,29.70,29.48,23,4,23,0.00
2013-1-2,31,18,7,15,6,-1,72,61,50,29.87,29.66,15,1,15,0.00
2013-1-3,26,14,2,9,0,-8,67,56,38,29.91,29.74,9,1,9,0.00
2013-1-4,38,28,16,23,18,7,73,65,53,29.74,29.57,15,2,15,0.02
2013-1-5,42,31,19,25,19,11,73,61,45,30.01,29.61,13,2,13,0.00
2013-1-6,43,30,20,28,21,12,81,71,56,29.98,29.69,10,1,10,0.00
2013-1-7,41,30,16,27,20,8,83,67,47,30.15,29.72,8,0,8,0.00
2013-1-8,45,30,14,29,21,7,81,69,53,30.12,30.01,18,1,18,0.00
2013-1-9,43,33,20,33,25,14,81,73,59,30.15,29.77,11,1,11,0.00
2013-1-10,46,38,28,28,24,20,70,56,45,30.29,29.82,17,2,17,0.00
2013-1-11,36,31,23,29,23,16,84,75,65,30.29,29.96,0,0,0,0.00
2013-1-12,40,36,33,36,32,28,88,86,84,29.98,29.88,0,0,0,0.00
2013-1-13,47,41,35,44,38,31,91,89,88,29.91,29.75,6,0,6,0.00
2013-1-14,57,48,38,50,40,27,91,75,51,30.01,29.61,13,2,13,0.00
2013-1-15,41,36,31,27,25,23,77,66,56,30.09,29.98,6,0,6,0.00
2013-1-16,33,32,29,29,26,24,87,82,74,30.00,29.59,2,0,2,0.00
2013-1-17,41,34,28,31,25,15,87,72,56,29.85,29.59,10,2,10,0.00
2013-1-18,29,22,16,16,6,2,61,49,37,30.19,29.80,15,1,15,0.00
2013-1-19,46,34,19,28,21,6,72,58,46,30.12,29.63,22,2,22,0.00
2013-1-20,51,39,27,32,24,10,73,57,39,29.69,29.31,23,4,23,0.00
2013-1-21,29,24,19,16,10,5,75,56,44,29.85,29.55,10,1,10,0.00
2013-1-22,24,19,11,15,6,-3,78,57,39,29.83,29.51,13,3,13,0.00
2013-1-23,16,10,5,-1,-6,-10,60,49,39,29.89,29.81,19,4,19,0.00
2013-1-24,21,10,2,-2,-7,-12,54,45,35,29.98,29.82,29,3,29,0.00
2013-1-25,24,15,7,5,-4,-10,60,42,33,30.06,29.80,8,2,8,0.00
2013-1-26,26,16,5,8,1,-4,70,53,38,30.00,29.75,10,1,10,0.00
2013-1-27,32,18,8,8,2,-3,64,50,34,30.22,29.99,10,0,10,0.00
2013-1-28,30,23,14,21,12,3,80,63,43,30.20,29.76,7,0,7,0.00
2013-1-29,35,30,25,28,24,19,85,80,74,29.95,29.76,1,0,1,0.00
2013-1-30,56,44,32,53,41,28,90,88,85,29.91,29.20,8,1,8,0.00
2013-1-31,59,46,30,56,35,14,90,67,43,29.36,28.74,19,5,19,0.00
2013-2-1,34,27,20,15,10,4,58,47,38,29.84,29.36,18,5,18,0.00
2013-2-2,32,24,16,11,7,2,57,50,42,29.99,29.80,11,1,11,0.00
2013-2-3,28,24,18,18,16,10,76,69,57,29.81,29.48,8,0,8,0.00
2013-2-4,29,23,17,16,10,5,77,58,43,29.70,29.48,17,4,17,0.00
2013-2-5,30,24,19,18,13,7,75,61,51,29.77,29.68,29,0,29,0.00
2013-2-6,38,29,22,25,17,5,79,61,42,30.05,29.67,12,2,12,0.00
2013-2-7,35,24,14,10,6,4,66,47,34,30.27,30.05,8,0,8,0.00
2013-2-8,28,24,17,21,15,8,84,71,49,30.22,29.37,3,0,3,0.00
2013-2-9,28,20,13,18,12,2,84,72,58,29.96,29.35,11,1,11,0.00
2013-2-10,44,20,-3,17,4,-11,69,52,30,30.14,29.96,9,0,9,0.00
2013-2-11,40,27,9,37,21,-1,88,77,64,30.10,29.37,8,0,8,0.02
2013-2-12,46,38,31,36,27,21,88,66,51,29.65,29.37,17,4,17,0.02
2013-2-13,46,34,24,28,22,16,75,63,48,29.63,29.45,10,1,10,0.00
2013-2-14,48,35,26,26,21,17,72,60,41,29.75,29.47,9,0,9,0.00
2013-2-15,52,36,20,35,26,13,85,68,49,29.75,29.65,10,1,10,0.00
2013-2-16,40,34,29,31,26,17,82,71,57,29.71,29.47,7,0,7,0.00
2013-2-17,29,22,15,17,8,0,75,56,42,29.47,29.18,27,4,27,0.00
2013-2-18,34,22,12,8,2,-2,53,43,31,29.92,29.47,19,5,19,0.00
2013-2-19,48,31,17,32,18,2,81,58,46,29.93,29.48,8,0,8,0.00
2013-2-20,37,29,25,18,13,10,59,50,43,29.54,29.40,18,6,18,0.00
2013-2-21,38,28,23,17,13,10,63,53,42,29.97,29.53,16,4,16,0.00
2013-2-22,44,31,17,23,18,10,76,59,42,30.13,29.97,8,0,8,0.00
2013-2-23,38,33,28,28,25,19,84,73,66,30.08,29.66,7,0,7,0.00
2013-2-24,37,33,32,32,29,28,87,85,82,29.66,29.46,8,0,8,0.00
2013-2-25,42,34,25,34,28,21,86,81,69,29.99,29.65,4,0,4,0.02
2013-2-26,44,37,31,35,29,27,88,74,57,30.09,29.98,29,0,29,0.00
2013-2-27,40,39,38,37,36,34,88,87,87,29.51,29.45,8,2,8,0.00
2013-3-2,41,41,40,28,28,27,60,59,58,29.42,29.40,2,0,2,0.00
2013-3-7,36,32,30,29,27,26,86,81,73,29.81,29.76,8,1,8,0.20
2013-3-8,40,32,29,32,27,23,87,80,66,29.92,29.70,3,0,3,0.13
2013-3-9,56,38,26,28,23,18,76,58,32,30.12,29.91,9,1,9,0.00
2013-3-10,51,35,20,33,25,14,80,67,48,30.17,30.05,8,0,8,0.00
2013-3-11,54,41,34,37,32,27,81,70,51,30.08,29.91,9,1,9,0.00
2013-3-12,54,45,36,48,41,32,89,85,77,29.92,29.49,7,0,7,0.00
2013-3-13,52,42,31,45,30,21,89,64,37,29.56,29.48,14,2,14,0.00
2013-3-14,37,31,22,23,15,6,67,52,41,29.62,29.49,18,4,18,0.00
2013-3-15,42,30,19,25,15,7,72,54,36,29.64,29.40,15,3,15,0.00
2013-3-16,42,34,26,24,18,14,72,53,36,29.64,29.45,8,1,8,0.00
2013-3-17,44,32,23,18,13,7,67,48,30,30.07,29.64,14,1,14,0.00
2013-3-18,42,29,16,22,10,4,72,45,28,30.21,29.97,7,0,7,0.00
2013-3-19,36,32,28,31,27,21,85,82,72,29.97,29.40,7,0,7,0.24
2013-3-20,44,32,24,24,20,16,83,63,41,29.58,29.47,18,3,18,0.04
2013-3-21,44,30,19,24,19,13,79,65,42,29.59,29.38,7,0,7,0.00
2013-3-22,44,33,24,23,18,14,70,55,41,29.51,29.38,14,3,14,0.00
2013-3-23,46,35,27,23,20,17,70,54,38,29.58,29.43,18,5,18,0.00
2013-3-24,52,39,30,28,23,18,67,53,37,29.59,29.49,10,1,10,0.00
2013-3-25,44,36,29,31,26,21,72,66,58,29.53,29.28,8,1,8,0.00
2013-3-26,52,41,34,31,25,19,70,55,36,29.56,29.31,8,1,8,0.00
2013-3-27,60,43,29,31,24,17,65,49,32,29.65,29.52,10,1,10,0.00
2013-3-28,55,43,35,34,30,27,77,60,42,29.80,29.64,8,0,8,0.00
2013-3-29,62,47,36,37,31,27,72,55,34,29.83,29.73,8,1,8,0.00
2013-3-30,62,48,34,31,27,22,68,47,25,29.87,29.76,10,1,10,0.00
2013-3-31,62,44,27,36,28,19,77,55,29,29.89,29.49,4,0,4,0.00
2013-4-1,65,46,33,44,34,14,82,64,42,29.58,29.28,17,3,17,0.00
2013-4-2,42,34,27,19,15,12,57,46,34,29.71,29.57,18,6,18,0.00
2013-4-3,48,37,29,18,15,12,57,42,29,29.94,29.70,21,7,21,0.00
2013-4-4,59,42,26,25,19,13,60,41,25,30.07,29.81,12,2,12,0.00
2013-4-5,67,47,36,33,26,22,66,48,25,29.82,29.41,12,2,12,0.00
2013-4-6,52,40,29,23,15,12,55,39,22,30.10,29.66,12,2,12,0.00
2013-4-7,60,42,25,36,25,13,72,53,32,30.10,29.76,14,2,14,0.00
2013-4-8,71,55,41,43,39,36,83,58,32,29.85,29.72,9,1,9,0.00
2013-4-9,75,58,46,53,43,37,82,59,37,29.84,29.63,17,2,17,0.00
2013-4-10,71,56,46,50,45,40,82,68,47,29.78,29.60,8,0,8,0.00
2013-4-11,60,49,41,44,37,26,84,65,41,29.91,29.60,7,0,7,0.00
2013-4-12,41,38,37,34,32,30,86,80,65,29.92,29.56,8,1,8,0.00
2013-4-13,57,44,35,40,35,31,86,70,49,29.71,29.52,11,1,11,0.00
2013-4-14,53,44,35,37,31,24,82,61,41,29.99,29.69,12,2,12,0.00
2013-4-15,64,46,29,38,31,23,79,57,37,30.15,29.99,0,0,0,0.00
2013-4-16,71,52,34,48,40,27,80,64,42,30.16,29.84,13,1,13,0.00
2013-4-17,74,60,46,50,40,31,82,51,28,30.11,29.83,9,2,9,0.00
2013-4-18,69,52,36,42,33,27,72,51,32,30.19,29.90,9,1,9,0.00
2013-4-19,79,63,52,61,55,42,86,74,54,29.91,29.42,11,2,11,0.00
2013-4-20,65,54,42,60,40,24,85,61,38,30.00,29.39,16,3,16,0.00
2013-4-21,60,45,32,30,24,19,61,44,28,30.43,30.00,9,1,9,0.00
2013-4-22,58,43,31,32,28,23,75,56,32,30.50,30.34,14,2,14,0.00
2013-4-23,41,39,37,37,33,28,86,79,64,30.34,29.88,7,0,7,0.00
2013-4-24,80,58,40,53,44,36,86,64,29,29.88,29.56,9,1,9,0.00
2013-4-25,71,57,44,49,38,27,82,52,28,30.04,29.60,14,3,14,0.00
2013-4-26,68,50,34,41,33,26,74,53,36,30.19,30.04,8,1,8,0.00
2013-4-27,73,53,34,42,35,27,79,53,30,30.18,30.03,8,1,8,0.00
2013-4-28,80,57,36,44,36,29,78,49,27,30.10,29.96,8,0,8,0.00
2013-4-29,77,59,44,47,37,29,73,47,31,30.04,29.94,12,1,12,0.00
2013-4-30,81,60,44,39,33,28,65,39,21,30.12,30.01,8,1,8,0.00
2013-5-1,80,58,36,44,35,26,71,45,26,30.23,30.12,8,1,8,0.00
2013-5-2,88,60,42,49,40,34,77,51,25,30.25,30.07,10,0,10,0.00
2013-5-3,70,54,40,45,39,32,74,57,41,30.28,30.14,11,1,11,0.00
2013-5-4,73,54,38,47,37,30,79,56,33,30.14,30.04,11,1,11,0.00
2013-5-5,72,52,34,45,36,27,78,57,35,30.10,29.99,8,0,8,0.00
2013-5-6,83,59,35,50,41,28,80,56,29,30.04,29.88,8,1,8,0.00
2013-5-7,86,65,43,58,49,36,81,59,36,29.95,29.84,9,0,9,0.00
2013-5-8,74,62,52,62,55,45,85,76,64,29.96,29.81,10,0,10,0.00
2013-5-9,70,62,58,60,56,53,87,82,66,29.81,29.64,3,0,3,0.00
2013-5-10,86,67,50,61,54,46,88,66,38,29.72,29.65,1,0,1,0.00
2013-5-11,70,64,59,61,56,51,85,77,64,29.68,29.46,11,1,11,0.00
2013-5-12,74,61,49,57,50,32,86,68,42,29.59,29.34,11,2,11,0.00
2013-5-13,64,51,43,36,31,27,60,47,34,29.80,29.59,12,3,12,0.00
2013-5-14,64,50,41,36,32,28,63,50,35,29.82,29.74,11,1,11,0.00
2013-5-15,68,51,35,49,39,28,81,64,39,29.82,29.44,10,1,10,0.00
2013-5-16,86,69,54,50,44,36,81,44,26,29.56,29.41,18,4,18,0.00
2013-5-17,78,62,48,48,41,36,68,48,32,29.98,29.56,8,1,8,0.00
2013-5-18,76,60,42,48,42,35,78,55,33,30.07,29.97,7,0,7,0.00
2013-5-19,73,59,48,53,48,40,83,67,47,30.10,29.97,10,1,10,0.00
2013-5-20,86,69,56,66,59,51,86,71,50,29.97,29.68,9,1,9,0.00
2013-5-21,94,68,52,70,58,47,85,72,43,29.78,29.59,9,0,9,0.00
2013-5-22,79,61,51,67,54,46,87,79,66,29.83,29.61,8,0,8,0.00
2013-5-23,72,64,56,66,59,51,90,84,78,29.68,29.55,9,0,9,0.00
2013-5-24,72,63,50,64,58,45,89,82,69,29.59,29.40,8,0,8,0.02
2013-5-25,52,48,41,48,43,36,87,85,82,29.59,29.48,8,0,8,0.00
2013-5-26,61,49,39,43,38,34,85,68,49,29.86,29.48,10,2,10,0.00
2013-5-27,75,58,40,45,40,34,82,55,32,29.91,29.81,12,2,12,0.00
2013-5-28,78,61,43,50,44,36,81,57,33,29.97,29.88,8,0,8,0.00
2013-5-29,74,64,58,65,58,49,87,81,67,29.92,29.72,12,0,12,0.00
2013-5-30,88,74,62,70,65,58,90,73,52,29.83,29.75,11,1,11,0.00
2013-5-31,95,79,62,71,64,56,88,64,40,29.84,29.68,8,1,8,0.00
2013-6-1,95,80,67,70,65,60,77,61,40,29.73,29.60,12,1,12,0.00
2013-6-2,92,78,69,70,65,61,81,67,45,29.63,29.47,12,2,12,0.00
2013-6-3,79,70,61,68,61,44,86,74,54,29.60,29.50,8,1,8,0.00
2013-6-4,75,63,52,51,45,39,71,53,40,29.84,29.57,10,1,10,0.00
2013-6-5,79,63,49,53,48,42,80,59,37,29.93,29.83,4,0,4,0.00
2013-6-6,77,64,53,54,49,45,77,60,41,29.93,29.84,7,0,7,0.00
2013-6-7,58,56,53,55,51,49,88,84,75,29.84,29.55,5,0,5,0.02
2013-6-8,78,63,52,64,55,49,89,77,60,29.76,29.37,12,1,12,0.02
2013-6-9,81,68,57,60,56,51,84,66,46,29.91,29.76,11,1,11,0.00
2013-6-10,69,62,55,59,55,49,87,79,67,29.94,29.75,3,0,3,0.00
2013-6-11,62,59,56,57,54,53,88,86,81,29.74,29.32,0,0,0,0.13
2013-6-12,72,63,57,56,54,50,88,72,56,29.57,29.31,8,1,8,0.00
2013-6-13,62,56,52,56,51,46,88,83,76,29.57,29.41,4,0,4,0.02
2013-6-14,74,60,51,58,53,48,89,77,53,29.53,29.38,4,0,4,0.00
2013-6-15,81,68,57,55,51,48,74,58,36,29.69,29.53,7,0,8,0.00
2013-6-16,74,66,54,60,54,46,77,66,51,29.69,29.45,8,0,8,0.00
2013-6-17,87,70,61,64,59,54,82,68,44,29.65,29.52,14,1,14,0.00
2013-6-18,77,63,59,65,58,54,87,82,67,29.69,29.61,1,0,1,0.00
2013-6-19,77,65,55,56,53,47,87,69,43,29.90,29.66,5,0,5,0.00
2013-6-20,81,66,50,56,51,44,83,62,39,30.00,29.90,0,0,0,0.00
2013-6-21,86,72,59,65,59,51,77,65,46,29.99,29.93,8,0,8,0.00
2013-6-22,86,73,62,64,59,54,77,62,43,29.97,29.85,15,1,15,0.00
2013-6-23,91,77,65,73,64,55,74,65,53,29.91,29.74,11,1,11,0.00
2013-6-24,95,80,70,74,68,64,83,69,50,29.77,29.62,9,1,9,0.00
2013-6-25,92,78,67,73,67,62,86,69,48,29.69,29.48,9,1,9,0.00
2013-6-26,85,76,68,71,67,62,84,74,61,29.60,29.48,8,0,8,0.00
2013-6-27,73,68,65,67,63,61,88,84,79,29.60,29.49,2,0,2,0.00
2013-6-28,83,70,61,73,65,58,90,83,70,29.50,29.23,8,0,8,0.00
2013-6-29,85,75,70,70,68,65,88,78,58,29.47,29.26,8,0,8,0.00
2013-6-30,88,76,69,71,68,64,86,75,56,29.68,29.47,4,0,4,0.00
2013-7-1,80,75,72,73,70,67,87,83,76,29.83,29.68,0,0,0,0.00
2013-7-2,84,76,68,74,69,62,88,79,68,29.94,29.81,0,0,0,0.00
2013-7-3,89,76,65,74,68,60,88,76,59,29.95,29.88,0,0,0,0.00
2013-7-4,93,82,71,76,72,67,87,72,54,29.96,29.84,0,0,0,0.00
2013-7-5,95,84,75,76,72,69,82,68,50,29.91,29.78,0,0,0,0.00
2013-7-6,93,82,74,75,71,66,82,70,52,29.82,29.73,0,0,0,0.00
2013-7-7,95,79,71,77,69,65,83,73,53,29.78,29.66,0,0,0,0.00
2013-7-8,91,79,70,75,69,64,87,72,51,29.80,29.65,0,0,0,0.00
2013-7-9,74,71,67,68,65,62,86,81,78,29.85,29.78,0,0,0,0.00
2013-7-10,88,75,68,75,69,63,88,81,63,29.81,29.54,0,0,0,0.00
2013-7-11,84,76,71,74,70,66,89,82,67,29.67,29.53,0,0,0,0.00
2013-7-12,78,72,67,66,61,57,84,69,55,29.94,29.67,0,0,0,0.00
2013-7-13,76,70,65,69,64,57,87,81,70,30.05,29.93,0,0,0,0.00
2013-7-14,91,79,70,75,71,66,90,75,55,30.04,29.94,0,0,0,0.00
2013-7-15,95,82,72,76,71,67,87,73,49,29.95,29.84,0,0,0,0.00
2013-7-16,98,82,69,74,69,63,84,67,43,29.91,29.84,0,0,0,0.00
2013-7-17,98,83,70,75,70,64,85,68,44,29.92,29.75,0,0,0,0.00
2013-7-18,99,86,76,76,72,69,80,66,45,29.76,29.67,0,0,0,0.00
2013-7-19,98,85,74,76,73,68,84,68,46,29.70,29.47,0,0,0,0.00
2013-7-20,93,83,75,76,72,61,84,70,53,29.56,29.41,0,0,0,0.00
2013-7-21,89,77,69,69,64,60,77,65,47,29.73,29.56,0,0,0,0.00
2013-7-22,88,74,65,71,65,60,86,74,51,29.76,29.62,0,0,0,0.00
2013-7-23,80,73,70,76,68,65,89,86,79,29.62,29.28,0,0,0,0.00
2013-7-24,86,76,68,71,66,55,90,74,53,29.70,29.33,0,0,0,0.00
2013-7-25,68,60,59,56,53,48,87,75,64,29.84,29.69,0,0,0,0.00
2013-7-26,74,64,59,67,60,55,89,85,74,29.80,29.69,0,0,0,0.00
2013-7-27,86,71,60,69,62,56,89,74,52,29.81,29.73,0,0,0,0.00
2013-7-28,87,73,64,70,65,58,86,76,52,29.77,29.69,0,0,0,0.00
2013-7-29,87,74,67,72,67,62,88,78,60,29.79,29.70,0,0,0,0.00
2013-7-30,86,73,65,63,59,55,80,63,43,29.85,29.78,0,0,0,0.00
2013-7-31,85,71,61,64,59,55,83,68,44,29.89,29.78,0,0,0,0.00
2013-8-1,82,69,60,66,61,55,86,77,58,29.80,29.62,0,0,0,0.00
2013-8-2,84,72,64,67,62,60,89,74,49,29.64,29.55,0,0,0,0.00
2013-8-3,78,70,64,64,61,58,86,74,56,29.62,29.54,0,0,0,0.00
2013-8-4,82,68,59,61,57,52,82,68,48,29.66,29.52,0,0,0,0.00
2013-8-5,81,66,56,54,50,47,80,61,37,29.80,29.65,0,0,0,0.00
2013-8-6,84,65,49,58,52,43,83,64,39,29.90,29.80,0,0,0,0.00
2013-8-7,85,68,54,60,55,48,85,65,41,29.93,29.85,0,0,0,0.00
2013-8-8,80,72,65,70,65,56,87,78,70,29.87,29.75,0,0,0,0.00
2013-8-9,76,73,71,73,69,67,91,87,82,29.77,29.50,0,0,0,0.00
2013-8-10,84,73,66,68,60,51,90,67,41,29.76,29.55,0,0,0,0.00
2013-8-11,83,68,55,60,55,49,82,64,44,29.83,29.75,0,0,0,0.00
2013-8-12,85,70,59,64,58,54,86,68,44,29.79,29.67,0,0,0,0.00
2013-8-13,75,68,64,66,62,58,86,80,69,29.67,29.44,0,0,0,0.00
2013-8-14,74,66,60,61,54,49,87,65,49,29.73,29.42,1,0,1,0.00
2013-8-15,79,65,54,56,52,48,80,64,42,29.87,29.72,1,0,1,0.00
2013-8-16,82,66,53,60,54,48,84,67,42,29.95,29.86,0,0,0,0.00
2013-8-17,85,68,55,63,58,50,85,70,46,30.02,29.94,0,0,0,0.00
2013-8-18,81,67,58,65,59,53,86,76,50,30.02,29.84,0,0,0,0.00
2013-8-19,83,70,60,65,60,55,85,70,52,29.84,29.71,0,0,0,0.00
2013-8-20,90,75,62,66,62,56,82,65,42,29.85,29.73,0,0,0,0.00
2013-8-21,91,74,60,68,62,55,85,68,44,29.90,29.78,0,0,0,0.00
2013-8-22,86,73,64,71,65,58,84,76,57,29.79,29.58,0,0,0,0.00
2013-8-23,86,73,62,67,60,52,84,66,44,29.88,29.58,0,0,0,0.00
2013-8-24,83,67,56,55,51,48,76,59,34,30.08,29.88,0,0,0,0.00
2013-8-25,87,67,51,60,53,45,84,63,35,30.11,29.93,0,0,0,0.00
2013-8-26,80,71,65,66,60,55,79,69,57,29.94,29.63,8,0,8,0.00
2013-8-27,85,74,68,72,66,63,88,78,58,29.65,29.58,0,0,0,0.00
2013-8-28,91,74,63,72,64,59,88,72,48,29.71,29.59,2,0,2,0.00
2013-8-29,69,66,62,63,60,57,85,82,79,29.82,29.69,4,0,4,0.00
2013-8-30,83,71,61,68,62,56,86,76,58,29.79,29.58,9,0,9,0.00
2013-8-31,79,74,69,71,69,64,87,83,77,29.59,29.54,5,0,5,0.00
2013-9-1,78,73,69,74,69,65,90,88,84,29.63,29.54,7,0,7,0.00
2013-9-2,76,73,71,73,70,67,91,89,85,29.61,29.47,8,0,8,0.00
2013-9-3,80,72,64,71,66,56,91,82,69,29.58,29.45,6,0,6,0.00
2013-9-4,80,69,60,60,57,53,84,67,46,29.68,29.56,9,1,9,0.00
2013-9-5,73,63,51,60,53,44,86,71,45,29.90,29.61,0,0,0,0.00
2013-9-6,72,57,44,48,44,39,83,64,38,29.99,29.84,9,0,9,0.00
2013-9-7,80,64,47,57,50,42,82,64,38,29.84,29.61,8,0,11,0.00
2013-9-8,80,66,50,63,52,40,80,64,42,29.84,29.51,8,0,8,0.00
2013-9-9,73,57,42,49,44,36,82,64,41,29.98,29.84,7,0,7,0.00
2013-9-10,75,66,56,69,60,48,88,82,73,29.90,29.78,8,0,8,0.00
2013-9-11,95,80,67,78,71,62,91,75,54,29.83,29.69,7,0,7,0.00
2013-9-12,87,77,68,74,68,64,85,76,60,29.72,29.44,11,0,11,0.24
2013-9-13,80,69,61,69,62,54,89,79,62,29.52,29.32,1,0,1,0.00
2013-9-14,70,61,54,55,51,48,83,71,58,29.81,29.52,0,0,0,0.00
2013-9-15,73,60,49,53,48,44,85,68,43,29.91,29.79,0,0,0,0.00
2013-9-16,68,58,49,56,49,38,82,73,62,30.00,29.76,0,0,0,0.00
2013-9-17,66,52,41,45,39,34,78,63,42,30.17,29.99,0,0,0,0.00
2013-9-18,75,56,40,51,43,34,85,65,39,30.08,29.89,0,0,0,0.00
2013-9-19,83,61,44,58,49,39,85,67,40,29.90,29.78,0,0,0,0.00
2013-9-20,83,63,47,60,51,41,86,68,39,29.84,29.74,0,0,0,0.00
2013-9-21,74,64,52,63,56,46,87,76,62,29.77,29.47,0,0,0,0.00
2013-9-22,71,64,53,64,55,44,88,73,55,29.59,29.35,0,0,0,1.51
2013-9-23,66,54,46,46,42,38,76,64,48,29.76,29.59,0,0,0,0.43
2013-9-24,69,54,43,48,42,36,77,64,45,29.75,29.57,1,0,1,0.00
2013-9-25,72,58,45,53,47,39,81,67,49,29.73,29.62,0,0,0,0.00
2013-9-26,66,58,52,51,48,45,81,70,54,29.88,29.73,0,0,0,0.00
2013-9-27,65,58,50,53,50,44,82,76,63,30.01,29.87,0,0,0,0.00
2013-9-28,75,58,44,58,48,40,87,73,51,30.08,30.00,0,0,0,0.00
2013-9-29,70,54,43,54,44,38,87,71,44,30.02,29.87,0,0,0,0.00
2013-9-30,70,54,42,54,45,37,87,73,51,29.88,29.71,0,0,0,0.00
2013-10-1,79,60,43,58,49,38,87,70,45,29.71,29.60,0,0,0,0.00
2013-10-2,78,65,53,62,55,47,85,70,54,29.71,29.60,0,0,0,0.00
2013-10-3,76,62,49,57,50,44,83,67,43,29.84,29.71,0,0,0,0.00
2013-10-4,63,56,50,57,51,44,86,82,77,29.86,29.79,0,0,0,1.93
2013-10-5,70,62,57,60,56,53,88,81,70,29.87,29.80,0,0,0,0.35
2013-10-6,61,57,54,55,53,50,89,87,81,29.97,29.85,0,0,0,0.00
2013-10-7,76,63,56,69,58,52,91,85,72,29.88,29.55,0,0,0,0.00
2013-10-8,67,57,44,52,45,38,80,66,49,30.12,29.66,0,0,0,0.00
2013-10-9,63,50,41,47,41,36,85,72,53,30.22,30.11,0,0,0,0.00
2013-10-10,61,51,41,52,45,36,86,79,71,30.11,29.92,0,0,0,0.02
2013-10-11,70,56,47,56,48,43,87,73,51,29.92,29.84,0,0,0,0.57
2013-10-12,58,53,46,54,48,40,88,83,75,30.13,29.90,0,0,0,0.18
2013-10-13,58,52,42,50,45,37,86,78,68,30.18,30.11,0,0,0,0.96
2013-10-14,64,48,34,49,40,30,86,73,50,30.15,29.99,0,0,0,0.00
2013-10-15,67,56,47,53,47,42,85,74,58,30.01,29.92,0,0,0,0.00
2013-10-16,60,53,46,52,48,41,88,81,72,29.92,29.67,0,0,0,0.00
2013-10-17,72,60,49,60,52,45,90,78,58,29.67,29.47,0,0,0,0.00
2013-10-18,66,59,45,58,49,38,88,70,49,29.67,29.36,0,0,0,0.00
2013-10-19,66,52,38,48,41,33,84,66,45,29.72,29.50,0,0,0,0.08
2013-10-20,62,52,39,46,39,31,84,63,40,29.78,29.45,0,0,0,0.04
2013-10-21,66,50,35,45,38,30,81,63,41,29.86,29.74,0,0,0,0.41
2013-10-22,65,51,39,52,41,33,84,69,54,29.74,29.46,0,0,0,0.00
2013-10-23,51,44,35,38,34,29,81,67,54,29.56,29.34,0,0,0,0.02
2013-10-24,53,44,36,34,29,25,75,57,37,29.63,29.40,0,0,0,0.06
2013-10-25,50,40,31,34,27,22,79,61,46,29.91,29.63,0,0,0,0.00
2013-10-26,55,41,28,35,28,21,80,60,38,29.91,29.62,0,0,0,0.00
2013-10-27,55,47,37,38,33,26,73,59,45,29.81,29.55,0,0,0,0.00
2013-10-28,58,43,30,36,30,23,80,60,44,30.09,29.81,0,0,0,0.00
2013-10-29,52,37,28,28,22,18,73,56,35,30.19,30.09,0,0,0,0.00
2013-10-30,54,40,29,40,30,18,76,68,58,30.11,29.93,1,0,1,0.00
2013-10-31,60,46,31,56,41,26,89,82,76,29.98,29.53,0,0,0,0.02
2013-11-1,68,63,55,60,56,48,88,77,65,29.53,29.22,0,0,0,0.00
2013-11-2,68,54,42,48,43,38,86,68,43,29.48,29.34,0,0,0,0.00
2013-11-3,51,42,31,43,27,17,77,56,37,30.16,29.48,0,0,0,0.00
2013-11-4,46,33,24,21,17,14,67,52,36,30.43,30.15,0,0,0,0.00
2013-11-5,52,36,24,32,25,15,76,63,45,30.44,30.24,0,0,0,0.00
2013-11-6,62,48,36,46,38,29,80,69,51,30.25,29.79,0,0,0,0.00
2013-11-7,64,53,39,55,46,30,85,78,70,29.79,29.42,0,0,0,1.10
2013-11-8,47,38,30,34,26,20,76,63,50,29.84,29.57,0,0,0,0.00
2013-11-9,45,35,25,28,24,18,78,64,46,29.95,29.76,0,0,0,0.00
2013-11-10,55,44,36,41,34,27,85,68,54,29.76,29.49,0,0,0,0.04
2013-11-11,52,44,37,31,28,25,63,53,40,29.85,29.63,0,0,0,0.00
2013-11-12,49,35,26,35,24,14,77,63,50,29.93,29.62,0,0,0,0.22
2013-11-13,38,28,22,19,14,11,68,56,40,30.03,29.90,0,0,0,0.00
2013-11-14,52,38,27,28,21,15,62,51,37,29.90,29.78,0,0,0,0.00
2013-11-15,61,44,28,28,23,17,67,47,27,29.94,29.84,0,0,0,0.00
2013-11-16,62,43,31,34,28,22,69,57,33,30.06,29.92,0,0,0,0.00
2013-11-17,52,41,30,41,34,22,84,75,66,30.05,29.59,0,0,0,0.00
2013-11-18,65,55,45,58,43,31,91,66,44,29.58,29.28,0,0,0,0.41
2013-11-19,47,39,30,31,22,16,56,50,41,30.02,29.42,0,0,0,0.00
2013-11-20,44,31,20,19,15,11,67,52,33,30.36,30.02,0,0,0,0.00
2013-11-21,50,32,17,30,19,10,76,61,40,30.37,30.10,1,0,1,0.00
2013-11-22,47,43,40,42,37,30,87,80,67,30.10,29.56,0,0,0,0.06
2013-11-23,48,39,28,44,26,15,88,60,43,29.67,29.54,0,0,0,0.00
2013-11-24,29,23,19,17,6,0,69,49,32,29.94,29.55,1,0,1,0.00
2013-11-25,34,24,14,15,6,-1,54,45,33,30.10,29.94,0,0,0,0.00
2013-11-26,40,34,30,27,20,14,78,56,48,30.06,29.77,0,0,0,0.02
2013-11-27,61,47,34,58,43,27,91,85,78,29.77,28.98,1,0,1,0.00
2013-11-28,36,29,21,30,16,9,79,58,41,30.16,29.23,0,0,0,0.00
2013-11-29,36,26,18,17,13,7,71,58,43,30.47,30.16,0,0,0,0.04
2013-11-30,33,23,12,19,12,5,74,63,50,30.51,30.14,0,0,0,0.00
2013-12-1,35,32,27,31,26,19,86,80,69,30.14,29.75,0,0,0,0.04
2013-12-2,39,37,35,36,33,31,88,87,86,29.76,29.66,0,0,0,0.00
2013-12-3,52,38,30,39,32,25,88,79,58,29.70,29.58,0,0,0,0.00
2013-12-4,47,33,24,32,25,20,86,75,56,29.93,29.69,1,0,1,0.00
2013-12-5,51,37,28,49,32,22,90,84,79,29.94,29.66,0,0,0,0.13
2013-12-6,54,47,34,51,43,30,91,85,74,29.89,29.60,7,0,7,0.00
2013-12-7,38,32,25,31,26,19,87,79,67,30.19,29.81,6,0,6,0.00
2013-12-8,31,27,19,21,18,14,81,70,59,30.32,30.18,0,0,0,0.00
2013-12-9,33,30,25,30,25,16,88,82,64,30.22,29.63,4,0,4,0.04
2013-12-10,34,30,22,30,25,15,89,83,72,29.74,29.52,4,0,5,0.00
2013-12-11,31,24,18,19,16,13,80,72,60,29.94,29.74,16,2,16,0.00
2013-12-12,26,19,11,16,8,3,77,63,46,30.01,29.79,10,1,10,0.00
2013-12-13,29,21,14,16,10,5,70,64,54,30.11,29.73,11,2,14,0.00
2013-12-14,17,14,11,11,3,-1,79,64,48,30.32,29.86,4,0,4,0.39
2013-12-15,30,23,16,23,17,10,84,79,73,29.86,29.19,0,0,0,0.00
2013-12-16,29,21,8,16,10,-1,81,62,46,29.93,29.48,13,1,13,0.14
2013-12-17,17,8,-3,12,1,-10,81,72,65,30.01,29.68,0,0,0,0.00
2013-12-18,35,24,16,22,16,10,82,72,57,29.82,29.61,9,0,9,3.49
2013-12-19,43,30,17,26,20,10,80,68,49,29.85,29.69,11,1,11,0.88
2013-12-20,51,38,28,35,28,22,80,70,53,29.85,29.64,6,0,6,0.00
2013-12-21,53,43,34,44,37,28,88,78,70,29.70,29.60,8,0,8,0.00
2013-12-22,58,42,34,55,39,31,91,88,86,29.76,29.52,7,0,7,0.00
2013-12-23,37,34,32,34,31,29,90,89,88,29.82,29.70,0,0,0,0.04
2013-12-24,37,32,25,34,23,14,90,71,55,29.94,29.79,7,0,7,0.00
2013-12-25,25,19,14,13,6,3,67,56,46,30.26,29.94,11,1,11,0.00
2013-12-26,30,23,14,24,16,5,80,73,66,30.21,29.82,6,0,7,0.00
2013-12-27,34,24,15,22,16,10,83,72,57,30.02,29.92,9,1,9,0.00
2013-12-28,45,30,15,29,21,10,84,70,51,29.95,29.73,13,1,13,0.14
2013-12-29,40,33,24,34,28,19,88,82,72,29.78,29.17,7,0,7,0.02
2013-12-30,40,31,18,34,22,8,89,70,47,29.90,29.29,10,1,10,0.00
2013-12-31,26,19,13,13,8,3,72,62,51,29.92,29.74,9,1,10,0.00
2014-1-1,28,20,12,12,8,3,69,58,47,30.10,29.92,9,1,9,0.00
2014-1-2,20,12,2,12,6,-4,77,74,67,30.07,29.57,8,0,8,0.00